SALSAT

Last updated on Mon Sep 15 2025 00:03:09 GMT+0000 (Coordinated Universal Time)

1 46495U 20068K 25256.91248867 .00006430 00000+0 26759-3 0 9993 2 46495 97.8710 239.5281 0011082 176.6089 183.5224 15.24084171273191
UTC large
Height (km)
Speed (km/s)
/
Latitude / Longitude
Inclination (degrees)
Orbital Period (minutes)
Azimuth
Elevation
Range (km)
Doppler Factor

Next 0 passes for location: London (51.5072 / 0.1276)

Sorry there are no passes over London.